Вернуться в каталог

COSMOS 1391

АктивенВоенныеLEO
NORAD 13378·PAYLOAD·🇷🇺 Russia

Запущен Jul 21, 1982 с Plesetsk Cosmodrome

Loading…

Ближайшие Пролёты (ближайшие 24 часа)

TLE

СвежийSource: Space-Track

Эпоха: Sep 14, 2026, 10:39 UTC

1 13378U 82073D   26257.44420909  .00000008  00000-0  15239-3 0  9997
2 13378  74.0148 142.7558 0021091 313.4913 220.4285 12.51435192 17001

Отслеживайте COSMOS 1391 в реальном времени с AllMySat

Download on the App Store